User: anonymous   Login
Location: Ellingshausen
(50.5460°N, 10.4723°E)
Time: 23:47:31
(UTC+00:00)
Language:

Cosmos 1633 Rocket - Orbit

View from above orbital plane
View from above orbital plane
View from above satellite
View from above satellite

Ground track
Ground track

The orbit is defined by the following mean orbital elements,

1 15593U          26067.52422787 +.00000000 +00000-0 +79977-4 0 00007
2 15593  82.5396 158.0559 0009853 310.3669  49.6687 14.86815816    02
Epoch (UTC): 08 March 2026 12:34:53
Eccentricity: 0.0009853
inclination: 82.5396°
perigee height: 601 km
apogee height: 615 km
right ascension of ascending node: 158.0559°
argument of perigee: 310.3669°
revolutions per day: 14.86815816
mean anomaly at epoch: 49.6687°

The dashed part of the orbit path shows where the satellite is in the earth's shadow,  

DLR